Weather History for Goodland, KS

Change the Weather History Date:

Saturday, July 7, 2012

  Actual Average Record
Temperature  
Mean Temperature 81 °F 75 °F  
Max Temperature 94 °F 90 °F 108 °F (1897)
Min Temperature 67 °F 61 °F 45 °F (1952)
Degree Days  
Heating Degree Days 0 0  
Month to date heating degree days 0 0  
Since 1 June heating degree days 1 37  
Since 1 July heating degree days 0 0  
Cooling Degree Days 16 10  
Month to date cooling degree days 132 70  
Year to date cooling degree days 586 290  
Since 1 June cooling degree days 498 249  
Growing Degree Days 30 (Base 50)    
Moisture  
Dew Point 60 °F    
Average Humidity 58    
Maximum Humidity 87    
Minimum Humidity 28    
Precipitation  
Precipitation T in 0.11 in 2.40 in (1993)
Month to date precipitation T 0.76  
Year to date precipitation 5.41 10.49  
Snow  
Snow 0.00 in 0.00 in - ()
Month to date snowfall 0.0 0.0  
Since 1 June snowfall 0.0 0.0  
Since 1 July snowfall 0.0 0.0  
Snow Depth 0.00 in    
Sea Level Pressure  
Sea Level Pressure 30.06 in    
Wind  
Wind Speed 11 mph (ENE)    
Max Wind Speed 24 mph    
Max Gust Speed 33 mph    
Visibility 10 miles    
Events      
T = Trace of Precipitation, MM = Missing Value Source: NWS Daily Summary

Daily Weather History Graph

Daily Weather History Graph

Search for Another Location

Airport:

Trip Planner

Search our weather history database for the weather conditions in past years. The results will help you decide how hot, cold, wet, or windy it might be!

Date:

Astronomy

Jul. 07, 2012 Rise Set
Actual Time 5:27 AM MDT 8:16 PM MDT
Civil Twilight 4:55 AM MDT 8:47 PM MDT
Nautical Twilight 4:15 AM MDT 9:27 PM MDT
Astronomical Twilight 3:29 AM MDT 10:13 PM MDT
Moon 10:38 PM MDT (7/7) 9:52 AM MDT (7/7)
Length of Visible Light 15h 52m
Length of Day
14h 48m
Waning Gibbous, 81% of the Moon is Illuminated
Jul 7
Waning Gibbous
Jul 10
Last Quarter
Jul 18
New
Jul 26
First Quarter
Aug 1
Full

Hourly Weather History & Observations

Time (MDT) Temp. Heat Index Dew Point Humidity Pressure Visibility Wind Dir Wind Speed Gust Speed Precip Events Conditions
12:53 AM 77.0 °F - 48.0 °F 36% 29.94 in 10.0 mi SW 13.8 mph 20.7 mph N/A   Clear
1:53 AM 73.0 °F - 51.1 °F 46% 29.95 in 10.0 mi West 13.8 mph - N/A   Clear
2:53 AM 69.1 °F - 63.0 °F 81% 29.96 in 10.0 mi NNW 13.8 mph - N/A   Clear
3:53 AM 69.1 °F - 63.0 °F 81% 29.99 in 10.0 mi North 20.7 mph 27.6 mph N/A   Clear
4:38 AM 66.2 °F - 62.6 °F 88% 30.17 in 10.0 mi North 17.3 mph - N/A   Mostly Cloudy
4:53 AM 66.9 °F - 62.1 °F 84% 30.02 in 10.0 mi North 12.7 mph 25.3 mph N/A   Overcast
5:53 AM 66.9 °F - 61.0 °F 81% 30.05 in 10.0 mi North 16.1 mph 23.0 mph N/A   Overcast
6:53 AM 66.9 °F - 60.1 °F 79% 30.07 in 10.0 mi NNE 16.1 mph - N/A   Overcast
7:46 AM 68.0 °F - 60.8 °F 78% 30.24 in 10.0 mi NNE 15.0 mph 23.0 mph N/A   Overcast
7:53 AM 68.0 °F - 60.1 °F 76% 30.10 in 10.0 mi NNE 16.1 mph - N/A   Overcast
8:53 AM 71.1 °F - 61.0 °F 70% 30.12 in 10.0 mi NE 12.7 mph - N/A   Overcast
9:28 AM 73.4 °F - 60.8 °F 65% 30.24 in 10.0 mi ENE 10.4 mph - N/A   Scattered Clouds
9:53 AM 75.9 °F - 61.0 °F 60% 30.11 in 10.0 mi NE 10.4 mph - N/A   Clear
10:53 AM 80.1 °F 80.9 °F 60.1 °F 50% 30.10 in 10.0 mi NE 10.4 mph - N/A   Clear
11:53 AM 84.9 °F 84.8 °F 60.1 °F 43% 30.08 in 10.0 mi Variable 6.9 mph - N/A   Clear
12:53 PM 87.1 °F 86.5 °F 59.0 °F 39% 30.06 in 10.0 mi NE 5.8 mph - N/A   Clear
1:53 PM 88.0 °F 86.9 °F 57.9 °F 36% 30.04 in 10.0 mi ESE 8.1 mph - N/A   Clear
2:53 PM 90.0 °F 88.1 °F 55.9 °F 31% 30.02 in 10.0 mi South 4.6 mph - N/A   Clear
3:53 PM 91.9 °F 90.3 °F 55.9 °F 30% 29.99 in 10.0 mi NNE 6.9 mph - N/A   Scattered Clouds
4:53 PM 93.0 °F 91.1 °F 55.0 °F 28% 29.98 in 10.0 mi ENE 8.1 mph - 0.00 in   Partly Cloudy
5:53 PM 91.9 °F 89.5 °F 54.0 °F 27% 29.97 in 10.0 mi ESE 9.2 mph - N/A   Clear
6:53 PM 82.9 °F 82.6 °F 57.9 °F 42% 30.01 in 10.0 mi SSE 15.0 mph 33.4 mph N/A   Mostly Cloudy
7:02 PM 82.4 °F 82.5 °F 59.0 °F 45% 30.15 in 10.0 mi ESE 13.8 mph 24.2 mph N/A   Mostly Cloudy
7:53 PM 73.9 °F - 61.0 °F 64% 30.04 in 10.0 mi ESE 10.4 mph - 0.00 in   Clear
8:53 PM 72.0 °F - 63.0 °F 73% 30.04 in 10.0 mi SE 4.6 mph - N/A   Clear
9:53 PM 72.0 °F - 63.0 °F 73% 30.06 in 10.0 mi ENE 5.8 mph - N/A   Clear
10:53 PM 73.9 °F - 62.1 °F 66% 30.06 in 10.0 mi ENE 6.9 mph - N/A   Clear
11:53 PM 73.9 °F - 66.9 °F 79% 30.06 in 10.0 mi East 10.4 mph - N/A   Clear